FW7740 Weather Reports


Display with metric or nautical units.
time (UTC)temp
F
wind
direction
speed
MPH
gust
MPH
rain 1hr
in
rain 24hr
in
rain mn
in
humidity
%
barometer
mb
20260901051328 73 296 0.0 0.0 0.00 0.00 0.00 82 1017.6
20260901050823 73 296 0.0 0.0 0.00 0.00 0.00 82 1018.1
20260901050319 73 296 0.0 0.0 0.00 0.00 0.00 83 1018.1
20260901045814 73 296 0.0 0.0 0.00 0.00 0.00 83 1018.1
20260901045313 73 296 0.0 0.0 0.00 0.00 0.00 83 1018.1
20260901044808 73 296 0.0 0.0 0.00 0.00 0.00 82 1018.1
20260901044304 73 296 0.0 0.0 0.00 0.00 0.00 82 1017.6
20260901043800 73 296 0.0 0.0 0.00 0.00 0.00 82 1017.6
20260901043256 73 296 0.0 0.0 0.00 0.00 0.00 82 1018.1
20260901042755 73 296 0.0 0.0 0.00 0.00 0.00 82 1018.1
20260901042250 73 296 0.0 0.0 0.00 0.00 0.00 83 1017.6
20260901041745 73 296 0.0 0.0 0.00 0.00 0.00 82 1017.6
20260901041246 73 296 0.0 0.0 0.00 0.00 0.00 82 1017.6
20260901040735 73 296 0.0 0.0 0.00 0.00 0.00 82 1018.1
20260901040233 73 296 0.0 0.0 0.00 0.00 0.00 82 1017.6
20260901035732 74 296 0.0 0.0 0.00 0.00 0.00 81 1018.1
20260901035226 74 296 0.0 0.0 0.00 0.00 0.00 81 1018.1
20260901034720 74 296 0.0 0.0 0.00 0.00 0.00 80 1018.1
20260901034215 74 296 0.0 0.0 0.00 0.00 0.00 80 1017.6
20260901033714 74 296 0.0 0.0 0.00 0.00 0.00 79 1017.6
20260901033208 75 296 0.0 0.0 0.00 0.00 0.00 79 1018.1
20260901032707 75 296 0.0 0.0 0.00 0.00 0.00 78 1017.6
20260901032201 75 296 0.0 0.0 0.00 0.00 0.00 78 1017.3
20260901031657 75 296 0.0 0.0 0.00 0.00 0.00 78 1017.6
20260901031152 75 296 0.0 0.0 0.00 0.00 0.00 77 1017.6
20260901030647 75 296 0.0 0.0 0.00 0.00 0.00 77 1017.6
20260901030141 76 296 0.0 0.0 0.00 0.00 0.00 76 1017.6
20260901025635 76 296 0.0 0.0 0.00 0.00 0.00 76 1017.6
20260901025130 76 296 0.0 0.0 0.00 0.00 0.00 76 1017.6
20260901024625 76 296 0.0 0.0 0.00 0.00 0.00 75 1017.3
20260901024124 76 296 0.0 0.0 0.00 0.00 0.00 75 1017.6
20260901023623 77 296 0.0 0.0 0.00 0.00 0.00 74 1017.6
20260901023118 77 296 0.0 0.0 0.00 0.00 0.00 74 1017.6
20260901022613 77 296 0.0 0.0 0.00 0.00 0.00 73 1017.3
20260901022108 77 296 0.0 0.0 0.00 0.00 0.00 73 1017.3
20260901021604 77 296 0.0 0.0 0.00 0.00 0.00 72 1017.3
20260901021059 78 296 0.0 0.0 0.00 0.00 0.00 72 1017.3
20260901020554 78 296 0.0 0.0 0.00 0.00 0.00 71 1017.0
20260901020049 78 295 0.0 0.0 0.00 0.00 0.00 69 1017.0
20260901015544 79 296 0.0 0.0 0.00 0.00 0.00 69 1017.0
20260901015039 79 296 0.0 0.0 0.00 0.00 0.00 69 1017.0
20260901014534 79 296 0.0 0.0 0.00 0.00 0.00 68 1017.0
20260901014030 80 296 0.0 0.0 0.00 0.00 0.00 68 1017.0
20260901013526 80 296 0.0 0.0 0.00 0.00 0.00 66 1016.6
20260901013021 80 296 0.0 0.0 0.00 0.00 0.00 66 1017.0
20260901012521 80 296 0.0 0.0 0.00 0.00 0.00 65 1016.3
20260901012016 81 296 0.0 0.0 0.00 0.00 0.00 64 1016.6
20260901011513 81 296 0.0 0.0 0.00 0.00 0.00 64 1016.6
20260901011010 82 296 0.0 0.0 0.00 0.00 0.00 63 1016.6
20260901010506 82 296 0.0 0.0 0.00 0.00 0.00 62 1016.3
20260901010005 82 296 0.0 0.0 0.00 0.00 0.00 62 1016.3
20260901005500 83 296 0.0 0.0 0.00 0.00 0.00 60 1016.3
20260901004954 84 296 0.0 0.0 0.00 0.00 0.00 60 1016.3
20260901004454 84 305 1.0 1.0 0.00 0.00 0.00 58 1016.3
20260901003949 85 306 0.0 0.0 0.00 0.00 0.00 56 1016.3
20260901003444 85 305 0.0 0.0 0.00 0.00 0.00 55 1016.3
20260901002943 86 305 1.0 1.0 0.00 0.00 0.00 54 1016.3
20260901002442 87 305 1.0 1.0 0.00 0.00 0.00 51 1016.3
20260901001937 87 306 0.0 0.0 0.00 0.00 0.00 49 1015.9
20260901001432 88 305 0.0 0.0 0.00 0.00 0.00 48 1016.3
20260901000927 89 306 0.0 0.0 0.00 0.00 0.00 45 1016.3
20260901000422 90 306 0.0 0.0 0.00 0.00 0.00 44 1016.3
20260831235921 91 316 0.0 0.0 0.00 0.00 0.00 43 1016.3
20260831235417 92 316 0.0 0.0 0.00 0.00 0.00 41 1016.3
20260831234917 92 316 0.0 0.0 0.00 0.00 0.00 39 1016.3
20260831234412 93 316 0.0 0.0 0.00 0.00 0.00 38 1015.9
20260831233907 93 291 0.0 0.0 0.00 0.00 0.00 38 1016.3
20260831233402 93 291 0.0 0.0 0.00 0.00 0.00 38 1015.9
20260831232857 94 290 1.0 1.0 0.00 0.00 0.00 36 1016.3
20260831232353 94 285 0.0 0.0 0.00 0.00 0.00 36 1016.3
20260831231849 94 285 0.0 0.0 0.00 0.00 0.00 35 1016.3
20260831231345 95 308 0.0 0.0 0.00 0.00 0.00 35 1016.3
20260831230841 95 308 0.0 0.0 0.00 0.00 0.00 34 1016.3
20260831230335 95 308 0.0 0.0 0.00 0.00 0.00 34 1016.3
20260831225830 96 297 1.0 1.0 0.00 0.00 0.00 33 1015.9
20260831225324 96 319 0.0 0.0 0.00 0.00 0.00 32 1016.3
20260831224820 96 348 1.0 1.0 0.00 0.00 0.00 31 1016.3
20260831224314 96 314 0.0 0.0 0.00 0.00 0.00 30 1016.3
20260831223809 97 308 1.0 1.0 0.00 0.00 0.00 30 1016.3
20260831223306 96 157 10.0 11.0 0.00 0.00 0.00 30 1016.3
20260831222802 96 307 1.0 1.0 0.00 0.00 0.00 30 1016.3
20260831222258 96 347 0.0 1.0 0.00 0.00 0.00 29 1016.3
20260831221753 97 16 3.0 3.0 0.00 0.00 0.00 28 1016.3
20260831221249 97 318 0.0 0.0 0.00 0.00 0.00 29 1016.3
20260831220748 98 294 0.0 1.0 0.00 0.00 0.00 28 1016.3
20260831220244 98 260 2.0 2.0 0.00 0.00 0.00 27 1016.3
20260831215738 98 161 3.0 3.0 0.00 0.00 0.00 27 1016.3
20260831215235 99 311 1.0 1.0 0.00 0.00 0.00 26 1016.3
20260831214731 99 246 2.0 2.0 0.00 0.00 0.00 26 1016.3
20260831214228 99 166 6.0 7.0 0.00 0.00 0.00 27 1016.3
20260831213724 100 204 3.0 5.0 0.00 0.00 0.00 27 1016.3
20260831213220 100 268 1.0 1.0 0.00 0.00 0.00 28 1016.3
20260831212715 101 235 2.0 2.0 0.00 0.00 0.00 28 1016.3
20260831212212 101 319 2.0 1.0 0.00 0.00 0.00 28 1016.3
20260831211710 102 272 3.0 3.0 0.00 0.00 0.00 27 1016.3
20260831211205 103 291 1.0 1.0 0.00 0.00 0.00 28 1016.6
20260831210705 102 335 1.0 1.0 0.00 0.00 0.00 28 1016.6
20260831210201 102 175 3.0 5.0 0.00 0.00 0.00 28 1016.6
20260831205700 102 298 1.0 1.0 0.00 0.00 0.00 28 1016.3
20260831205156 101 323 1.0 1.0 0.00 0.00 0.00 28 1016.6
20260831204651 102 217 2.0 3.0 0.00 0.00 0.00 28 1016.6
20260831204150 102 294 3.0 5.0 0.00 0.00 0.00 28 1016.6
20260831203649 102 350 2.0 3.0 0.00 0.00 0.00 27 1016.6
20260831203144 101 264 4.0 5.0 0.00 0.00 0.00 29 1017.0
20260831202643 101 222 2.0 2.0 0.00 0.00 0.00 29 1016.6
20260831202138 100 247 3.0 2.0 0.00 0.00 0.00 29 1016.6
20260831201636 101 154 1.0 1.0 0.00 0.00 0.00 28 1016.6
20260831201131 102 218 3.0 2.0 0.00 0.00 0.00 27 1017.3
20260831200627 101 152 4.0 3.0 0.00 0.00 0.00 27 1017.0
20260831200122 101 175 5.0 6.0 0.00 0.00 0.00 27 1017.0
20260831195617 102 133 10.0 14.0 0.00 0.00 0.00 27 1017.3
20260831195112 102 331 3.0 3.0 0.00 0.00 0.00 27 1017.0
20260831194607 101 304 1.0 1.0 0.00 0.00 0.00 28 1017.3
20260831194102 102 142 7.0 7.0 0.00 0.00 0.00 27 1017.0
20260831193557 102 283 2.0 2.0 0.00 0.00 0.00 27 1017.0
20260831193057 102 151 6.0 8.0 0.00 0.00 0.00 27 1017.3
20260831192552 101 195 3.0 3.0 0.00 0.00 0.00 29 1017.3
20260831192048 102 27 3.0 3.0 0.00 0.00 0.00 28 1017.3
20260831191543 102 291 2.0 2.0 0.00 0.00 0.00 30 1017.3
20260831191039 100 173 3.0 3.0 0.00 0.00 0.00 29 1017.3
20260831190535 101 250 3.0 3.0 0.00 0.00 0.00 29 1017.6
20260831190033 101 329 2.0 2.0 0.00 0.00 0.00 29 1017.6
20260831185529 100 228 1.0 3.0 0.00 0.00 0.00 30 1017.6
20260831185025 100 59 2.0 3.0 0.00 0.00 0.00 30 1017.6
20260831184519 101 248 1.0 2.0 0.00 0.00 0.00 30 1018.1
20260831184014 100 325 2.0 2.0 0.00 0.00 0.00 30 1017.6
20260831183508 100 230 3.0 3.0 0.00 0.00 0.00 30 1018.1
20260831183007 99 82 3.0 3.0 0.00 0.00 0.00 32 1018.1
20260831182502 100 183 7.0 7.0 0.00 0.00 0.00 31 1018.1
20260831181957 100 104 3.0 3.0 0.00 0.00 0.00 31 1018.1
20260831181446 100 233 0.0 1.0 0.00 0.00 0.00 31 1018.1
20260831180941 99 292 3.0 3.0 0.00 0.00 0.00 33 1018.1
20260831180441 98 137 5.0 5.0 0.00 0.00 0.00 33 1018.4
20260831175941 100 313 1.0 2.0 0.00 0.00 0.00 32 1018.4
20260831175437 99 310 0.0 0.0 0.00 0.00 0.00 33 1018.4
20260831174933 100 242 4.0 3.0 0.00 0.00 0.00 32 1018.4
20260831174428 99 186 3.0 3.0 0.00 0.00 0.00 32 1018.8
20260831173927 99 137 4.0 7.0 0.00 0.00 0.00 34 1018.8
20260831173426 98 120 2.0 2.0 0.00 0.00 0.00 34 1018.8
20260831172922 99 165 5.0 5.0 0.00 0.00 0.00 34 1018.8
20260831172418 99 205 4.0 5.0 0.00 0.00 0.00 34 1018.8
20260831171917 98 235 2.0 3.0 0.00 0.00 0.00 34 1019.1
20260831171414 98 132 1.0 1.0 0.00 0.00 0.00 35 1019.1
20260831170910 98 287 1.0 1.0 0.00 0.00 0.00 36 1019.4
20260831170406 98 160 7.0 8.0 0.00 0.00 0.00 35 1019.4
20260831165902 97 92 3.0 3.0 0.00 0.00 0.00 35 1019.1
20260831165358 97 77 2.0 5.0 0.00 0.00 0.00 36 1019.4
20260831164854 97 123 3.0 3.0 0.00 0.00 0.00 36 1019.1
20260831164350 97 255 4.0 6.0 0.00 0.00 0.00 36 1019.8
20260831163845 96 0 2.0 2.0 0.00 0.00 0.00 38 1019.4
20260831163341 97 157 5.0 6.0 0.00 0.00 0.00 37 1019.8
20260831162839 96 225 3.0 3.0 0.00 0.00 0.00 38 1019.4
20260831162335 96 273 1.0 2.0 0.00 0.00 0.00 39 1019.4
20260831161833 95 279 4.0 6.0 0.00 0.00 0.00 39 1019.4
20260831161330 95 62 4.0 6.0 0.00 0.00 0.00 40 1019.4
20260831160825 95 309 5.0 7.0 0.00 0.00 0.00 40 1019.4
20260831160320 95 231 4.0 5.0 0.00 0.00 0.00 42 1019.1
20260831155815 95 206 4.0 5.0 0.00 0.00 0.00 41 1019.4
20260831155310 95 26 1.0 1.0 0.00 0.00 0.00 41 1019.4
20260831154805 95 23 2.0 2.0 0.00 0.00 0.00 41 1019.1
20260831154302 94 166 2.0 2.0 0.00 0.00 0.00 42 1019.4
20260831153759 93 132 3.0 3.0 0.00 0.00 0.00 43 1019.4
20260831153250 93 300 5.0 6.0 0.00 0.00 0.00 44 1019.4
20260831152746 93 127 1.0 2.0 0.00 0.00 0.00 44 1019.4
20260831152242 93 24 1.0 1.0 0.00 0.00 0.00 44 1019.8
20260831151741 92 199 7.0 9.0 0.00 0.00 0.00 44 1019.4
20260831151240 92 150 4.0 5.0 0.00 0.00 0.00 45 1019.4
20260831150736 92 95 2.0 2.0 0.00 0.00 0.00 45 1019.4
20260831150232 91 161 2.0 2.0 0.00 0.00 0.00 46 1019.4
20260831145731 91 49 5.0 6.0 0.00 0.00 0.00 46 1019.4
20260831145227 90 104 3.0 3.0 0.00 0.00 0.00 47 1019.1
20260831144723 89 351 0.0 0.0 0.00 0.00 0.00 49 1019.1
20260831144219 88 161 4.0 5.0 0.00 0.00 0.00 50 1019.1
20260831143718 88 165 4.0 5.0 0.00 0.00 0.00 50 1019.4
20260831143214 87 145 3.0 3.0 0.00 0.00 0.00 52 1019.1
20260831142709 86 162 4.0 5.0 0.00 0.00 0.00 52 1019.1
20260831142205 86 178 3.0 3.0 0.00 0.00 0.00 54 1019.1
20260831141703 85 129 4.0 3.0 0.00 0.00 0.00 55 1019.4
20260831141158 85 93 2.0 2.0 0.00 0.00 0.00 55 1019.4
20260831140653 84 132 5.0 5.0 0.00 0.00 0.00 56 1019.1
20260831140147 83 137 2.0 2.0 0.00 0.00 0.00 59 1019.1
20260831135645 82 13 1.0 1.0 0.00 0.00 0.00 58 1019.4
20260831135141 81 319 0.0 0.0 0.00 0.00 0.00 63 1019.4
20260831134636 80 316 0.0 0.0 0.00 0.00 0.00 63 1019.1
20260831134131 79 284 0.0 0.0 0.00 0.00 0.00 66 1019.4
20260831133631 77 285 0.0 0.0 0.00 0.00 0.00 69 1019.1
20260831133126 76 285 0.0 0.0 0.00 0.00 0.00 70 1019.1
20260831132622 75 285 0.0 0.0 0.00 0.00 0.00 71 1019.1
20260831132120 75 285 0.0 0.0 0.00 0.00 0.00 73 1019.1
20260831131615 74 285 0.0 0.0 0.00 0.00 0.00 73 1019.1
20260831131112 73 285 0.0 0.0 0.00 0.00 0.00 74 1019.1
20260831130607 73 285 0.0 0.0 0.00 0.00 0.00 76 1019.1
20260831125601 71 285 0.0 0.0 0.00 0.00 0.00 79 1019.1
20260831125057 71 286 0.0 0.0 0.00 0.00 0.00 79 1019.1
20260831124553 70 286 0.0 0.0 0.00 0.00 0.00 80 1019.1
20260831124048 69 286 0.0 0.0 0.00 0.00 0.00 83 1018.8
20260831123547 67 286 0.0 0.0 0.00 0.00 0.00 86 1018.8
20260831123043 66 286 0.0 0.0 0.00 0.00 0.00 89 1018.8
20260831122536 66 286 0.0 0.0 0.00 0.00 0.00 89 1018.4
20260831122032 66 286 0.0 0.0 0.00 0.00 0.00 90 1018.8
20260831121527 65 286 0.0 0.0 0.00 0.00 0.00 91 1018.8
20260831121023 65 286 0.0 0.0 0.00 0.00 0.00 92 1018.1
20260831120522 65 286 0.0 0.0 0.00 0.00 0.00 92 1018.4
20260831120018 65 286 0.0 0.0 0.00 0.00 0.00 92 1018.1
20260831115514 65 286 0.0 0.0 0.00 0.00 0.00 92 1018.1
20260831115009 65 286 0.0 0.0 0.00 0.00 0.00 92 1017.6
20260831114507 65 286 0.0 0.0 0.00 0.00 0.00 92 1017.6
20260831114002 65 286 0.0 0.0 0.00 0.00 0.00 92 1018.1
20260831113502 65 286 0.0 0.0 0.00 0.00 0.00 92 1017.6
20260831112958 65 286 0.0 0.0 0.00 0.00 0.00 92 1017.6
20260831112452 65 286 0.0 0.0 0.00 0.00 0.00 92 1017.6
20260831111947 65 286 0.0 0.0 0.00 0.00 0.00 92 1017.6
20260831111443 65 286 0.0 0.0 0.00 0.00 0.00 91 1017.6
20260831110938 65 286 0.0 0.0 0.00 0.00 0.00 91 1017.3
20260831110433 65 286 0.0 0.0 0.00 0.00 0.00 91 1017.3
20260831105932 65 286 0.0 0.0 0.00 0.00 0.00 91 1017.3
20260831105428 65 286 0.0 0.0 0.00 0.00 0.00 91 1017.6
20260831104922 66 286 0.0 0.0 0.00 0.00 0.00 91 1017.6
20260831104413 66 286 0.0 0.0 0.00 0.00 0.00 91 1017.3
20260831103908 66 301 0.0 0.0 0.00 0.00 0.00 91 1017.3
20260831103403 66 301 0.0 0.0 0.00 0.00 0.00 91 1017.3
20260831102858 66 301 0.0 0.0 0.00 0.00 0.00 91 1017.6
20260831102353 66 301 0.0 0.0 0.00 0.00 0.00 91 1017.3
20260831101848 66 301 0.0 0.0 0.00 0.00 0.00 91 1017.3
20260831101348 66 301 0.0 0.0 0.00 0.00 0.00 91 1017.3
20260831100844 66 299 0.0 0.0 0.00 0.00 0.00 91 1017.3
20260831100340 66 299 0.0 0.0 0.00 0.00 0.00 91 1017.3
20260831095839 66 299 0.0 0.0 0.00 0.00 0.00 91 1017.3
20260831095334 66 299 0.0 0.0 0.00 0.00 0.00 91 1017.3
20260831094829 66 299 0.0 0.0 0.00 0.00 0.00 90 1017.3
20260831094324 66 299 0.0 0.0 0.00 0.00 0.00 90 1017.3
20260831093820 67 299 0.0 0.0 0.00 0.00 0.00 90 1017.6
20260831093316 67 299 0.0 0.0 0.00 0.00 0.00 90 1017.3
20260831092812 67 299 0.0 0.0 0.00 0.00 0.00 89 1017.6
20260831092308 67 299 0.0 0.0 0.00 0.00 0.00 89 1017.3
20260831091802 67 299 0.0 0.0 0.00 0.00 0.00 89 1017.3
20260831091258 67 299 0.0 0.0 0.00 0.00 0.00 89 1017.3
20260831090753 67 299 0.0 0.0 0.00 0.00 0.00 89 1017.3
20260831090249 67 299 0.0 0.0 0.00 0.00 0.00 89 1017.6
20260831085745 67 299 0.0 0.0 0.00 0.00 0.00 89 1017.3
20260831085239 68 299 0.0 0.0 0.00 0.00 0.00 89 1017.3
20260831084734 68 299 0.0 0.0 0.00 0.00 0.00 89 1017.3
20260831084231 68 299 0.0 0.0 0.00 0.00 0.00 89 1017.3
20260831083727 68 299 0.0 0.0 0.00 0.00 0.00 88 1017.3
20260831083222 68 299 0.0 0.0 0.00 0.00 0.00 88 1017.3
20260831082720 68 299 0.0 0.0 0.00 0.00 0.00 88 1017.3
20260831082210 68 299 0.0 0.0 0.00 0.00 0.00 87 1017.3
20260831081705 69 299 0.0 0.0 0.00 0.00 0.00 87 1017.3
20260831081201 69 299 0.0 0.0 0.00 0.00 0.00 87 1017.3
20260831080656 69 299 0.0 0.0 0.00 0.00 0.00 86 1017.0
20260831080150 69 299 0.0 0.0 0.00 0.00 0.00 86 1017.0
20260831075647 69 299 0.0 0.0 0.00 0.00 0.00 86 1017.0
20260831075142 69 299 0.0 0.0 0.00 0.00 0.00 86 1017.3
20260831074641 69 299 0.0 0.0 0.00 0.00 0.00 86 1017.0
20260831074136 69 299 0.0 0.0 0.00 0.00 0.00 85 1016.6
20260831073631 69 299 0.0 0.0 0.00 0.00 0.00 85 1017.0
20260831073130 70 299 0.0 0.0 0.00 0.00 0.00 85 1017.0
20260831072626 70 299 0.0 0.0 0.00 0.00 0.00 85 1017.3
20260831072122 70 299 0.0 0.0 0.00 0.00 0.00 84 1017.0
20260831071621 70 299 0.0 0.0 0.00 0.00 0.00 83 1017.3
20260831071116 71 299 0.0 0.0 0.00 0.00 0.00 83 1017.0
20260831070615 71 299 0.0 0.0 0.00 0.00 0.00 82 1017.0
20260831070110 71 299 0.0 0.0 0.00 0.00 0.00 82 1017.0
20260831065608 71 299 0.0 0.0 0.00 0.00 0.00 81 1017.3
20260831065103 71 299 0.0 0.0 0.00 0.00 0.00 81 1017.0
20260831064558 71 299 0.0 0.0 0.00 0.00 0.00 80 1017.3
20260831064053 71 299 0.0 0.0 0.00 0.00 0.00 81 1017.3
20260831063548 72 299 0.0 0.0 0.00 0.00 0.00 80 1017.3
20260831063049 72 299 0.0 0.0 0.00 0.00 0.00 80 1017.3
20260831062544 72 299 0.0 0.0 0.00 0.00 0.00 80 1017.3
20260831062043 72 299 0.0 0.0 0.00 0.00 0.00 80 1017.3
20260831061541 72 299 0.0 0.0 0.00 0.00 0.00 79 1017.3
20260831061038 72 299 0.0 0.0 0.00 0.00 0.00 79 1017.3
20260831060538 72 299 0.0 0.0 0.00 0.00 0.00 79 1017.3
20260831060033 72 299 0.0 0.0 0.00 0.00 0.00 79 1017.0
20260831055527 72 299 0.0 0.0 0.00 0.00 0.00 79 1017.3
20260831055023 72 299 0.0 0.0 0.00 0.00 0.00 79 1017.3
20260831054522 73 299 0.0 0.0 0.00 0.00 0.00 78 1017.0
20260831054022 73 299 0.0 0.0 0.00 0.00 0.00 78 1017.0
20260831053520 73 299 0.0 0.0 0.00 0.00 0.00 78 1017.3
20260831053015 73 299 0.0 0.0 0.00 0.00 0.00 78 1017.3
20260831052514 73 299 0.0 0.0 0.00 0.00 0.00 78 1017.0
20260831052014 73 299 0.0 0.0 0.00 0.00 0.00 77 1017.0